Location: Doux
(49.5045°N, 4.4321°E)
Time: 20:23:22
(UTC+00:00)

H-2A R/B - Pass Details

Date: 23 May 2024
Orbit: 553 x 572 km, 98.1° (Epoch: 14 June)

Event Time Altitude Azimuth Distance (km) Brightness Sun altitude
Rises 02:11:23 0° 8° (N) 2,759 8.1 -12.1°
Reaches altitude 10° 02:13:36 10° 1° (N) 1,856 6.9 -11.9°
Maximum altitude 02:17:23 41° 291° (WNW) 819 4.1 -11.5°
Enters shadow 02:20:09 16° 227° (SW) 1,472 4.8 -11.3°
